IT9NKT-WX Weather Reports


Display with metric or nautical units.
time (UTC)temp
F
wind
direction
speed
MPH
gust
MPH
rain 1hr
in
rain 24hr
in
rain mn
in
humidity
%
barometer
mb
20260508082003 78 187 1.0 3.0 0.00 0.00 0.00 55 1012.0
20260508081503 77 186 2.0 6.0 0.00 0.00 0.00 56 1012.0
20260508081003 76 186 2.0 6.0 0.00 0.00 0.00 57 1012.1
20260508080503 76 179 2.0 4.0 0.00 0.00 0.00 58 1012.1
20260508080003 76 177 1.0 4.0 0.00 0.00 0.00 58 1012.0
20260508075504 76 184 2.0 4.0 0.00 0.00 0.00 59 1012.2
20260508075216 75 188 2.0 6.0 0.00 0.00 0.00 61 1012.0
20260508074504 75 174 2.0 6.0 0.00 0.00 0.00 61 1012.3
20260508074004 75 165 1.0 4.0 0.00 0.00 0.00 60 1012.2
20260508073715 75 170 1.0 4.0 0.00 0.00 0.00 61 1012.2
20260508073003 74 182 1.0 4.0 0.00 0.00 0.00 61 1012.2
20260508072503 74 181 1.0 4.0 0.00 0.00 0.00 62 1012.2
20260508072004 74 175 1.0 2.0 0.00 0.00 0.00 61 1012.3
20260508071504 74 176 1.0 4.0 0.00 0.00 0.00 61 1012.1
20260508071215 74 175 1.0 4.0 0.00 0.00 0.00 62 1012.3
20260508070504 73 193 1.0 4.0 0.00 0.00 0.00 62 1012.3
20260508070003 72 195 1.0 4.0 0.00 0.00 0.00 65 1012.0
20260508065504 72 188 1.0 3.0 0.00 0.00 0.00 66 1012.5
20260508065217 73 183 1.0 3.0 0.00 0.00 0.00 65 1012.1
20260508064715 72 185 1.0 2.0 0.00 0.00 0.00 67 1012.4
20260508064003 71 195 1.0 4.0 0.00 0.00 0.00 69 1012.4
20260508063503 71 182 1.0 2.0 0.00 0.00 0.00 69 1012.3
20260508063004 71 169 1.0 2.0 0.00 0.00 0.00 68 1012.3
20260508062504 71 157 1.0 2.0 0.00 0.00 0.00 69 1012.2
20260508062003 71 154 0.0 1.0 0.00 0.00 0.00 69 1012.3
20260508061504 71 168 0.0 2.0 0.00 0.00 0.00 71 1012.2
20260508061003 71 187 0.0 2.0 0.00 0.00 0.00 71 1012.1
20260508060504 70 172 0.0 2.0 0.00 0.00 0.00 72 1012.3
20260508060004 70 159 1.0 2.0 0.00 0.00 0.00 73 1012.3
20260508055503 70 161 0.0 1.0 0.00 0.00 0.00 74 1012.3
20260508055213 69 148 0.0 1.0 0.00 0.00 0.00 74 1012.3
20260508054503 68 141 1.0 2.0 0.00 0.00 0.00 76 1012.3
20260508054003 68 123 0.0 2.0 0.00 0.00 0.00 77 1012.3
20260508053503 67 153 0.0 1.0 0.00 0.00 0.00 79 1012.1
20260508053003 67 161 0.0 2.0 0.00 0.00 0.00 80 1012.3
20260508052503 66 162 0.0 2.0 0.00 0.00 0.00 81 1012.1
20260508052003 65 16 0.0 2.0 0.00 0.00 0.00 82 1012.0
20260508051503 65 94 0.0 2.0 0.00 0.00 0.00 83 1012.4
20260508051004 65 168 0.0 1.0 0.00 0.00 0.00 84 1012.2
20260508050714 64 171 0.0 1.0 0.00 0.00 0.00 85 1012.2
20260508050003 63 160 0.0 1.0 0.00 0.00 0.00 86 1012.1
20260508045503 63 269 0.0 2.0 0.00 0.00 0.00 86 1012.1
20260508045004 63 271 0.0 2.0 0.00 0.00 0.00 87 1011.9
20260508044503 62 177 0.0 1.0 0.00 0.00 0.00 87 1011.8
20260508044003 62 179 0.0 1.0 0.00 0.00 0.00 88 1011.8
20260508043504 62 169 0.0 1.0 0.00 0.00 0.00 88 1011.7
20260508043004 61 168 0.0 2.0 0.00 0.00 0.00 88 1012.0
20260508042503 61 172 0.0 2.0 0.00 0.00 0.00 88 1012.0
20260508042003 61 175 0.0 1.0 0.00 0.00 0.00 88 1011.9
20260508041504 61 177 0.0 1.0 0.00 0.00 0.00 88 1011.8
20260508041217 61 182 0.0 1.0 0.00 0.00 0.00 88 1011.8
20260508040503 61 184 0.0 1.0 0.00 0.00 0.00 88 1011.6
20260508040003 61 0 0.0 0.0 0.00 0.00 0.00 88 1011.7
20260508035504 61 192 0.0 2.0 0.00 0.00 0.00 88 1011.7
20260508035004 61 192 0.0 2.0 0.00 0.00 0.00 88 1011.5
20260508034504 61 187 0.0 1.0 0.00 0.00 0.00 88 1011.3
20260508034003 61 168 0.0 0.0 0.00 0.00 0.00 88 1011.3
20260508033504 61 175 0.0 1.0 0.00 0.00 0.00 88 1011.4
20260508033216 61 176 0.0 1.0 0.00 0.00 0.00 88 1011.3
20260508032714 61 179 0.0 0.0 0.00 0.00 0.00 88 1011.3
20260508032003 61 316 0.0 1.0 0.00 0.00 0.00 88 1011.2
20260508031715 61 312 0.0 1.0 0.00 0.00 0.00 88 1011.0
20260508031003 61 189 0.0 1.0 0.00 0.00 0.00 88 1010.9
20260508030504 61 0 0.0 0.0 0.00 0.00 0.00 87 1011.0
20260508030004 62 0 0.0 0.0 0.00 0.00 0.00 87 1010.9
20260508025717 62 0 0.0 0.0 0.00 0.00 0.00 87 1011.0
20260508025003 62 0 0.0 0.0 0.00 0.00 0.00 87 1011.2
20260508024713 62 191 0.0 1.0 0.00 0.00 0.00 87 1011.1
20260508024003 62 191 0.0 1.0 0.00 0.00 0.00 87 1011.1
20260508023503 62 0 0.0 0.0 0.00 0.00 0.00 87 1011.3
20260508023004 62 0 0.0 0.0 0.00 0.00 0.00 87 1011.3
20260508022714 62 0 0.0 0.0 0.00 0.00 0.00 87 1011.0
20260508022004 62 0 0.0 0.0 0.00 0.00 0.00 87 1011.1
20260508021715 62 0 0.0 0.0 0.00 0.00 0.00 87 1011.0
20260508021004 62 202 0.0 1.0 0.00 0.00 0.00 87 1011.0
20260508020503 62 206 0.0 1.0 0.00 0.00 0.00 87 1011.0
20260508020004 62 202 0.0 1.0 0.00 0.00 0.00 87 1010.9
20260508015503 62 194 0.0 1.0 0.00 0.00 0.00 87 1010.8
20260508015004 62 174 0.0 1.0 0.00 0.00 0.00 87 1010.6
20260508014504 62 197 0.0 1.0 0.00 0.00 0.00 86 1010.7
20260508014004 62 194 0.0 1.0 0.00 0.00 0.00 86 1010.7
20260508013714 63 194 0.0 1.0 0.00 0.00 0.00 86 1010.5
20260508013003 63 148 0.0 2.0 0.00 0.00 0.00 86 1010.4
20260508012504 63 137 0.0 2.0 0.00 0.00 0.00 86 1010.6
20260508012003 63 119 0.0 1.0 0.00 0.00 0.00 85 1010.6
20260508011503 63 22 0.0 3.0 0.00 0.00 0.00 84 1010.6
20260508011003 63 351 0.0 3.0 0.00 0.00 0.00 83 1010.6
20260508010503 63 1 1.0 4.0 0.00 0.00 0.00 83 1010.7
20260508010004 63 11 1.0 4.0 0.00 0.00 0.00 83 1010.8
20260508005713 63 13 1.0 4.0 0.00 0.00 0.00 83 1010.9
20260508005004 63 348 0.0 2.0 0.00 0.00 0.00 83 1011.0
20260508004504 63 188 0.0 1.0 0.00 0.00 0.00 83 1011.2
20260508004003 63 186 0.0 1.0 0.00 0.00 0.00 82 1011.3
20260508003504 64 192 0.0 1.0 0.00 0.00 0.00 82 1011.3
20260508003003 64 239 1.0 6.0 0.00 0.00 0.00 82 1011.1
20260508002503 63 262 1.0 6.0 0.00 0.00 0.00 83 1011.1
20260508002003 63 311 1.0 3.0 0.00 0.00 0.00 83 1011.5
20260508001503 63 336 1.0 3.0 0.00 0.00 0.00 83 1011.5
20260508001003 63 316 0.0 2.0 0.00 0.00 0.00 83 1011.7
20260508000504 63 133 0.0 1.0 0.00 0.00 0.00 82 1011.9
20260508000003 63 167 0.0 0.0 0.00 0.00 0.00 82 1012.1
20260507235504 63 177 0.0 1.0 0.00 0.00 0.00 82 1012.0
20260507235003 64 172 0.0 2.0 0.00 0.00 0.00 82 1012.0
20260507234504 64 163 0.0 2.0 0.00 0.00 0.00 82 1012.2
20260507234004 64 160 0.0 1.0 0.00 0.00 0.00 82 1012.1
20260507233503 64 176 0.0 1.0 0.00 0.00 0.00 82 1012.4
20260507233004 64 181 0.0 1.0 0.00 0.00 0.00 82 1012.1
20260507232504 64 209 0.0 3.0 0.00 0.00 0.00 83 1012.2
20260507232214 64 339 0.0 3.0 0.00 0.00 0.00 83 1012.2
20260507231717 64 6 0.0 3.0 0.00 0.00 0.00 83 1012.2
20260507230504 64 280 0.0 1.0 0.00 0.00 0.00 84 1012.6
20260507230003 64 208 0.0 1.0 0.00 0.00 0.00 84 1012.9
20260507225503 64 299 0.0 3.0 0.00 0.00 0.00 85 1013.4
20260507225213 64 322 0.0 3.0 0.00 0.00 0.00 85 1013.0
20260507224716 64 292 0.0 3.0 0.00 0.00 0.00 85 1012.8
20260507224004 64 0 0.0 0.0 0.00 0.00 0.00 85 1012.9
20260507223503 64 200 0.0 1.0 0.00 0.00 0.00 84 1013.2
20260507223003 64 198 1.0 1.0 0.00 0.00 0.00 84 1013.0
20260507222503 64 197 1.0 2.0 0.00 0.00 0.00 84 1012.9
20260507222004 64 202 0.0 2.0 0.00 0.00 0.00 84 1012.6
20260507221503 64 290 0.0 2.0 0.00 0.00 0.00 84 1012.6
20260507221217 64 2 1.0 7.0 0.00 0.00 0.00 84 1012.4
20260507220714 64 18 1.0 7.0 0.00 0.00 0.00 83 1012.3
20260507220007 64 42 1.0 2.0 0.00 0.00 0.00 83 1011.7
20260507215503 64 24 1.0 6.0 0.00 0.00 0.00 83 1012.0
20260507215213 64 20 1.0 6.0 0.00 0.00 0.00 83 1012.1
20260507214504 64 47 1.0 4.0 0.00 0.00 0.00 83 1012.1
20260507214003 64 58 1.0 4.0 0.00 0.00 0.00 83 1011.9
20260507213717 64 58 1.0 2.0 0.00 0.00 0.00 83 1012.0
20260507213003 64 22 1.0 7.0 0.00 0.00 0.00 83 1012.1
20260507212713 64 22 1.0 7.0 0.00 0.00 0.00 83 1012.0
20260507212003 64 26 1.0 3.0 0.00 0.00 0.00 83 1011.9
20260507211503 64 49 1.0 2.0 0.00 0.00 0.00 83 1011.8
20260507211004 64 39 1.0 3.0 0.00 0.00 0.00 83 1011.8
20260507210504 64 23 2.0 4.0 0.00 0.00 0.00 83 1011.8
20260507210213 64 40 1.0 4.0 0.00 0.00 0.00 83 1012.0
20260507205503 64 58 2.0 7.0 0.00 0.00 0.00 83 1011.9
20260507205003 64 44 2.0 7.0 0.00 0.00 0.00 83 1011.6
20260507204505 64 36 2.0 6.0 0.00 0.00 0.00 82 1011.7
20260507204003 64 39 2.0 8.0 0.00 0.00 0.00 82 1011.9
20260507203504 64 51 2.0 8.0 0.00 0.00 0.00 82 1012.2
20260507203004 64 54 1.0 7.0 0.00 0.00 0.00 82 1012.1
20260507202503 65 40 1.0 3.0 0.00 0.00 0.00 82 1012.4
20260507202004 65 63 2.0 11.0 0.00 0.00 0.00 82 1012.5
20260507201715 64 75 2.0 11.0 0.00 0.00 0.00 82 1012.5
20260507201004 65 74 2.0 8.0 0.00 0.00 0.00 82 1012.4
20260507200503 65 85 2.0 7.0 0.00 0.00 0.00 82 1012.4
20260507200004 65 86 2.0 7.0 0.00 0.00 0.00 82 1012.2
20260507195504 65 67 2.0 9.0 0.00 0.00 0.00 81 1012.0
20260507195215 65 66 2.0 9.0 0.00 0.00 0.00 81 1011.7
20260507194504 65 40 2.0 6.0 0.00 0.00 0.00 81 1011.5
20260507194003 65 33 2.0 10.0 0.00 0.00 0.00 81 1011.4
20260507193503 65 53 2.0 10.0 0.00 0.00 0.00 81 1011.5
20260507193004 65 62 2.0 8.0 0.00 0.00 0.00 81 1011.7
20260507192714 65 56 2.0 5.0 0.00 0.00 0.00 81 1011.6
20260507192004 65 43 2.0 13.0 0.00 0.00 0.00 81 1011.3
20260507191503 65 47 1.0 4.0 0.00 0.00 0.00 81 1011.4
20260507191003 65 45 1.0 7.0 0.00 0.00 0.00 81 1011.3
20260507190504 65 69 2.0 7.0 0.00 0.00 0.00 81 1011.5
20260507190005 65 74 2.0 6.0 0.00 0.00 0.00 81 1011.5
20260507185717 65 79 2.0 10.0 0.00 0.00 0.00 81 1011.5
20260507185003 65 76 3.0 10.0 0.00 0.00 0.00 81 1011.3
20260507184713 65 55 3.0 6.0 0.00 0.00 0.00 81 1011.5
20260507184216 65 42 3.0 13.0 0.00 0.00 0.00 81 1011.5
20260507183504 65 50 3.0 11.0 0.00 0.00 0.00 81 1011.6
20260507183005 65 48 3.0 15.0 0.00 0.00 0.00 81 1011.4
20260507182504 65 55 4.0 15.0 0.00 0.00 0.00 81 1011.1
20260507182213 65 40 4.0 15.0 0.00 0.00 0.00 81 1011.2
20260507181504 65 49 3.0 10.0 0.00 0.00 0.00 81 1011.0
20260507181003 65 52 3.0 10.0 0.00 0.00 0.00 81 1010.8
20260507180504 65 51 3.0 9.0 0.00 0.00 0.00 81 1011.1
20260507180003 65 53 3.0 7.0 0.00 0.00 0.00 81 1011.2
20260507175504 65 46 4.0 11.0 0.00 0.00 0.00 81 1011.1
20260507175216 65 50 4.0 11.0 0.00 0.00 0.00 81 1011.3
20260507174504 65 58 4.0 14.0 0.00 0.00 0.00 80 1011.0
20260507174217 65 59 4.0 14.0 0.00 0.00 0.00 80 1010.8
20260507173504 65 64 4.0 15.0 0.00 0.00 0.00 80 1010.7
20260507173004 65 53 4.0 15.0 0.00 0.00 0.00 80 1010.5
20260507172503 65 51 4.0 10.0 0.00 0.00 0.00 80 1010.7
20260507172003 65 56 3.0 7.0 0.00 0.00 0.00 80 1010.9
20260507171504 65 42 4.0 15.0 0.00 0.00 0.00 80 1011.1
20260507171214 65 49 4.0 15.0 0.00 0.00 0.00 81 1010.9
20260507170503 65 59 4.0 16.0 0.00 0.00 0.00 80 1011.0
20260507170003 65 53 4.0 16.0 0.00 0.00 0.00 80 1011.1
20260507165503 65 56 4.0 13.0 0.00 0.00 0.00 80 1010.9
20260507165004 65 47 4.0 13.0 0.00 0.00 0.00 80 1011.4
20260507164714 65 43 4.0 13.0 0.00 0.00 0.00 80 1011.6
20260507164004 65 38 3.0 13.0 0.00 0.00 0.00 80 1011.4
20260507163503 65 39 4.0 13.0 0.00 0.00 0.00 80 1011.5
20260507163003 65 52 4.0 11.0 0.00 0.00 0.00 80 1011.2
20260507162716 65 52 4.0 16.0 0.00 0.00 0.00 79 1011.3
20260507162004 65 48 5.0 16.0 0.00 0.00 0.00 79 1011.0
20260507161717 65 53 5.0 21.0 0.00 0.00 0.00 80 1010.8
20260507161003 65 53 5.0 21.0 0.00 0.00 0.00 79 1011.1
20260507160503 65 64 5.0 18.0 0.00 0.00 0.00 79 1010.7
20260507160004 65 77 4.0 16.0 0.00 0.00 0.00 79 1010.9
20260507155504 65 79 5.0 16.0 0.00 0.00 0.00 80 1011.2
20260507155217 65 78 5.0 16.0 0.00 0.00 0.00 79 1011.2
20260507154503 65 48 5.0 11.0 0.00 0.00 0.00 79 1011.0
20260507154005 65 52 5.0 18.0 0.00 0.00 0.00 79 1011.1
20260507153504 65 62 5.0 18.0 0.00 0.00 0.00 79 1011.2
20260507153003 65 68 5.0 16.0 0.00 0.00 0.00 78 1011.2
20260507152717 65 65 4.0 10.0 0.00 0.00 0.00 78 1011.5
20260507152215 65 50 4.0 16.0 0.00 0.00 0.00 78 1011.4
20260507151504 65 56 4.0 14.0 0.00 0.00 0.00 78 1011.4
20260507151216 65 52 5.0 10.0 0.00 0.00 0.00 78 1011.5
20260507150504 65 48 5.0 16.0 0.00 0.00 0.00 78 1011.3
20260507150003 65 44 6.0 21.0 0.00 0.00 0.00 78 1011.4
20260507145504 65 46 5.0 21.0 0.00 0.00 0.00 78 1011.4
20260507145004 65 62 4.0 14.0 0.00 0.00 0.00 77 1011.3
20260507144503 65 44 4.0 13.0 0.00 0.00 0.00 78 1011.1
20260507144003 65 41 5.0 21.0 0.00 0.00 0.00 77 1011.3
20260507143503 65 47 5.0 21.0 0.00 0.00 0.00 77 1011.0
20260507143003 65 53 4.0 11.0 0.00 0.00 0.00 77 1011.2
20260507142503 65 61 5.0 18.0 0.00 0.00 0.00 78 1011.3
20260507142003 65 61 4.0 18.0 0.00 0.00 0.00 77 1011.5
20260507141504 65 52 4.0 13.0 0.00 0.00 0.00 77 1011.8
20260507141003 65 58 6.0 21.0 0.00 0.00 0.00 77 1011.5
20260507140503 65 65 5.0 21.0 0.00 0.00 0.00 77 1011.5
20260507140003 66 51 6.0 24.0 0.00 0.00 0.00 76 1011.6
20260507135715 65 51 7.0 24.0 0.00 0.00 0.00 76 1011.5
20260507135003 66 44 6.0 16.0 0.00 0.00 0.00 76 1011.6
20260507134503 66 34 7.0 21.0 0.00 0.00 0.00 76 1011.9
20260507134214 66 39 7.0 21.0 0.00 0.00 0.00 75 1011.9
20260507133503 66 44 7.0 17.0 0.00 0.00 0.00 75 1011.9
20260507133004 67 37 7.0 27.0 0.00 0.00 0.00 74 1011.9
20260507132504 67 34 8.0 27.0 0.00 0.00 0.00 73 1012.0
20260507132216 66 33 9.0 27.0 0.00 0.00 0.00 73 1011.8
20260507131504 67 51 7.0 19.0 0.00 0.00 0.00 72 1011.8
20260507131004 67 48 6.0 18.0 0.00 0.00 0.00 73 1011.8
20260507130503 68 45 6.0 17.0 0.00 0.00 0.00 71 1012.1
20260507130004 68 59 6.0 16.0 0.00 0.00 0.00 70 1012.1
20260507125504 68 54 7.0 24.0 0.00 0.00 0.00 71 1012.2
20260507125214 68 53 7.0 24.0 0.00 0.00 0.00 72 1012.2
20260507124503 67 57 8.0 23.0 0.00 0.00 0.00 72 1012.6
20260507124004 67 51 8.0 29.0 0.00 0.00 0.00 72 1012.4
20260507123718 67 58 8.0 29.0 0.00 0.00 0.00 71 1012.5
20260507123004 67 51 7.0 21.0 0.00 0.00 0.00 71 1012.4
20260507122714 68 48 7.0 21.0 0.00 0.00 0.00 70 1012.6
20260507122004 68 60 6.0 19.0 0.00 0.00 0.00 69 1012.4
20260507121504 68 55 6.0 15.0 0.00 0.00 0.00 69 1012.6
20260507121004 68 57 7.0 19.0 0.00 0.00 0.00 70 1012.6
20260507120504 68 56 7.0 19.0 0.00 0.00 0.00 69 1012.5
20260507120214 68 53 7.0 19.0 0.00 0.00 0.00 69 1012.7
20260507115504 67 49 8.0 25.0 0.00 0.00 0.00 70 1012.6
20260507115004 68 61 7.0 19.0 0.00 0.00 0.00 68 1012.5
20260507114503 68 62 8.0 15.0 0.00 0.00 0.00 70 1012.6
20260507114004 68 61 7.0 25.0 0.00 0.00 0.00 67 1012.7
20260507113503 68 45 9.0 25.0 0.00 0.00 0.00 70 1012.3
20260507113004 68 44 8.0 19.0 0.00 0.00 0.00 68 1012.5
20260507112503 69 44 7.0 25.0 0.00 0.00 0.00 67 1012.5
20260507112217 68 48 8.0 25.0 0.00 0.00 0.00 68 1012.7
20260507111504 68 53 7.0 15.0 0.00 0.00 0.00 69 1012.7
20260507111003 68 59 7.0 21.0 0.00 0.00 0.00 68 1013.2
20260507110716 68 63 7.0 21.0 0.00 0.00 0.00 67 1013.0
20260507110003 68 45 7.0 30.0 0.00 0.00 0.00 68 1013.3
20260507105503 68 49 7.0 30.0 0.00 0.00 0.00 68 1013.2
20260507105003 68 62 7.0 21.0 0.00 0.00 0.00 68 1013.2
20260507104504 68 55 8.0 19.0 0.00 0.00 0.00 68 1013.3
20260507104004 68 58 8.0 27.0 0.00 0.00 0.00 65 1013.6
20260507103504 69 62 7.0 27.0 0.00 0.00 0.00 64 1013.5
20260507103004 69 64 7.0 21.0 0.00 0.00 0.00 65 1013.8
20260507102504 68 65 7.0 23.0 0.00 0.00 0.00 68 1013.7
20260507102003 68 56 7.0 23.0 0.00 0.00 0.00 65 1013.5
20260507101504 69 53 6.0 17.0 0.00 0.00 0.00 66 1013.6
20260507101004 69 57 6.0 24.0 0.00 0.00 0.00 65 1013.4
20260507100503 68 67 7.0 24.0 0.00 0.00 0.00 66 1013.6
20260507100215 68 63 7.0 19.0 0.00 0.00 0.00 65 1013.4
20260507095718 69 57 7.0 21.0 0.00 0.00 0.00 62 1013.8
20260507095216 69 53 7.0 21.0 0.00 0.00 0.00 61 1013.7
20260507094504 69 50 7.0 25.0 0.00 0.00 0.00 61 1013.7
20260507094004 68 55 8.0 25.0 0.00 0.00 0.00 63 1013.6
20260507093503 69 60 7.0 18.0 0.00 0.00 0.00 63 1013.8
20260507093003 69 59 6.0 19.0 0.00 0.00 0.00 62 1014.0
20260507092503 68 46 7.0 19.0 0.00 0.00 0.00 62 1013.7
20260507092003 68 38 7.0 15.0 0.00 0.00 0.00 64 1013.6
20260507091717 68 45 7.0 21.0 0.00 0.00 0.00 65 1013.6
20260507091214 67 50 7.0 21.0 0.00 0.00 0.00 66 1013.8
20260507090718 67 43 7.0 30.0 0.00 0.00 0.00 67 1014.0
20260507090005 67 48 7.0 30.0 0.00 0.00 0.00 67 1013.7
20260507085504 67 55 7.0 17.0 0.00 0.00 0.00 68 1013.7
20260507085003 67 55 7.0 13.0 0.00 0.00 0.00 69 1013.6
20260507084504 67 59 7.0 19.0 0.00 0.00 0.00 70 1013.7
20260507084218 67 58 7.0 19.0 0.00 0.00 0.00 70 1013.8
20260507083503 67 63 7.0 21.0 0.00 0.00 0.00 70 1013.9
20260507083004 67 49 7.0 21.0 0.00 0.00 0.00 70 1013.7
20260507082503 67 42 6.0 19.0 0.00 0.00 0.00 69 1013.4